www.pogodaiklimat.ru

Погода и климат >> Архив погоды >> Россия >> Камчатский край >> Мыс Африка


ПОГОДА на Мысе Африка

  • Прогноз погоды на Мысе Африка
  • Монитор погоды на Мысе Африка

АРХИВ ПОГОДЫ на Мысе Африка

Время (UTC), дата Ветер
(напр.,м/с)
 
Видим.   Явления Облачность Т
(С)
Тd
(С)
f
(%)
Тe
(С)
Тes
(С)
Комфортность P
(гПа)
Po
(гПа)
Тmin
(С)
Tmax
(С)
R
(мм)
R24
(мм)
S
(см)
12 12.02 С 6 20 км 5/3 600 м
[Sc Ci fib]
-14.7 -18.9 70 -24 -24 1012.6 1010.7
15 12.02 СЗ 5 20 км 5/3 600 м
[Sc Ci fib]
-11.9 -20.7 48 -20 -20 1013.9 1012.0
18 12.02 З 2 20 км 1/1 600 м
[Sc]
-13.0 -21.9 47 -18 -18 1016.6 1014.7
21 12.02 СЗ 2 20 км 3/1 600 м
[Sc Ci fib]
-14.8 -21.6 56 -20 -20 1017.9 1016.1 -16.0 27
00 13.02 С 4 20 км 3/1 600 м
[Sc Ci fib]
-12.7 -18.9 60 -20 -18 1020.2 1018.4
03 13.02 С 6 20 км 9/9 600 м
[Sc]
-10.2 -15.5 65 -19 -19 1020.6 1018.7
06 13.02 С 8-10
{10}
20 км 10/10 300 м
[Sc]
-9.2 -13.0 74 -19 -19 1020.5 1018.7
09 13.02 В 9-12
{12}
2000 м слаб. ливневой снег {метель} 10/10 300 м
[Cb cap]
-5.4 -7.7 84 -15 -15 1019.1 1017.3 -5.4 0.3
12 13.02 СВ 12-16
{16}
1000 м слаб. ливневой снег {метель} 10/10 300 м
[Cb cap]
-5.0 -6.0 93 -15 -15 1014.5 1012.8
15 13.02 СВ 13-18
{18}
1000 м ливневой снег {метель} 10/10 300 м
[Cb cap]
-4.5 -5.0 96 -15 -15 1009.3 1007.6
18 13.02 СВ 16-21
{22}
500 м ливневой снег {метель} 10/10 300 м
[Cb cap]
-4.0 -4.8 94 -15 -15 1002.4 1000.7
21 13.02 С 19-26
{26}
200 м метель {ливн. осадки} ?/? -3.3 -3.7 97 -15 -15 993.5 991.8 -5.4 7 29
00 14.02 С 21-28
{30}
50 м сильная метель {ливн. осадки} ?/? -3.3 -3.6 98 -16 -16 985.4 983.7
03 14.02 С 21-30
{31}
50 м сильная метель ?/? -5.5 -5.9 97 -18 -18 976.6 974.9
06 14.02 С 24-33
{34}
50 м сильная метель ?/? -5.1 -5.4 98 -19 -19 972.5 970.8
09 14.02 С 19-27
{36}
50 м сильная метель ?/? -5.5 -5.8 98 -18 -18 972.4 970.7 -3.1 32
12 14.02 СЗ 19-24
{28}
50 м сильная метель ?/? -7.6 -8.0 97 -21 -21 971.6 969.9
15 14.02 СЗ 19-26
{27}
50 м сильная метель ?/? -6.9 -7.2 98 -20 -20 970.9 969.3
18 14.02 СЗ 17-21
{27}
200 м метель ?/? -5.6 -6.1 96 -18 -18 971.9 970.2
21 14.02 СЗ 16-21
{26}
200 м метель ?/? -4.9 -5.2 98 -17 -17 973.3 971.6 -7.8 15 28
00 15.02 СЗ 14-20
{26}
1000 м слаб. ливневой снег {метель} 10/10 300 м
[Cb cap]
-4.4 -4.3 100 -15 -15 974.5 972.8
03 15.02 СЗ 18-24
{25}
2000 м метель {ливн. осадки} 8/4 600 м
[Sc Ci fib]
-5.3 -5.8 96 -18 -18 974.4 972.7
06 15.02 СЗ 19-26
{26}
2000 м метель {ливн. осадки} 5/3 600 м
[Sc Ci fib]
-5.6 -7.7 85 -18 -18 975.1 973.4
09 15.02 СЗ 14-18
{26}
4000 м метель 4/3 600 м
[Sc Ci fib]
-5.2 -9.6 71 -16 -16 977.7 976.0 -3.9 2
12 15.02 СЗ 18-22
{22}
4000 м метель 6/3 600 м
[Sc Ci fib]
-7.3 -11.8 70 -20 -20 977.7 976.0
15 15.02 СЗ 19-24
{27}
2000 м метель 8/8 600 м
[Sc]
-6.9 -12.8 63 -19 -19 977.8 976.1
18 15.02 СЗ 11-15
{26}
4000 м метель 8/8 600 м
[Sc]
-7.7 -14.3 59 -18 -18 979.5 977.8
21 15.02 СЗ 8-11
{16}
20 км {метель} 4/4 600 м
[Sc]
-8.0 -15.0 57 -17 -17 980.9 979.2 -8.2 27
00 16.02 СЗ 9-12
{15}
20 км позёмок 8/8 600 м
[Sc]
-8.8 -15.6 58 -19 -18 982.1 980.4 -9.0
03 16.02 З 2
{12}
20 км {метель} 8/4 600 м
[Sc Ci fib]
-6.0 -11.5 65 -10 -9 982.0 980.3
06 16.02 З 3
{11}
20 км {метель} 9/8 600 м
[Sc Ci fib]
-9.0 -12.8 74 -15 -15 982.9 981.2
09 16.02 СЗ 8-14
{15}
20 км позёмок 3/3 600 м
[Sc]
-9.1 -18.3 47 -18 -18 984.5 982.7 -5.8
12 16.02 СЗ 9-15
{17}
20 км позёмок 5/5 600 м
[Sc]
-9.2 -19.2 44 -19 -19 984.4 982.7
15 16.02 СЗ 7
{17}
20 км позёмок 3/3 600 м
[Sc]
-9.3 -19.6 43 -18 -18 985.3 983.6
18 16.02 СЗ 4
{10}
20 км {метель} 3/3 600 м
[Sc]
-11.0 -19.9 48 -18 -18 986.9 985.2
21 16.02 З 3
{11}
20 км 8/3 600 м
[Sc Ci fib]
-10.9 -19.1 51 -17 -17 988.5 986.8 -12.1 26
00 17.02 СВ 1 20 км 8/4 600 м
[Sc Ci fib]
-7.8 -18.5 42 -10 -8 989.8 988.1
03 17.02 СЗ 2 20 км 6/5 600 м
[Sc Ci fib]
-7.8 -15.0 56 -12 -11 991.1 989.3
06 17.02 СЗ 6 20 км 9/9 300 м
[Sc]
-9.3 -14.3 67 -18 -18 991.1 989.3
09 17.02 С 5 20 км 9/9 300 м
[Sc]
-8.7 -12.2 76 -16 -16 992.5 990.7 -6.3
12 17.02 СЗ 5
{11}
4000 м слаб. ливневой снег {метель} 8/8 300 м
[Cb cap]
-9.8 -11.7 86 -18 -18 991.7 990.0
15 17.02 СЗ 8-11
{13}
20 км позёмок {ливн. осадки} 3/3 600 м
[Sc]
-10.1 -15.1 67 -20 -20 991.9 990.2
18 17.02 СЗ 4
{14}
20 км {ливн. осадки, метель} 8/1 600 м
[Sc Ci fib]
-9.8 -18.3 50 -17 -17 993.0 991.3
21 17.02 СЗ 7 20 км позёмок 8/3 600 м
[Sc Ac lent]
-9.8 -18.3 50 -19 -19 994.5 992.8 -11.0 1 26
00 18.02 СЗ 2
{11}
20 км {метель} 8/0
[Ac trans Ci fib]
-9.4 -15.9 59 -14 -12 996.8 995.0
03 18.02 СЗ 5 20 км 6/0
[Ac trans Ci fib]
-9.5 -17.3 53 -17 -17 999.1 997.3
06 18.02 З 2 20 км {метель} 4/3 600 м
[Sc Ci fib]
-9.9 -18.3 50 -14 -14 1000.5 998.7
09 18.02 З 4 20 км 3/1 600 м
[Sc Ci fib]
-12.3 -19.5 55 -19 -19 1003.1 1001.3 -7.3
12 18.02 З 4 20 км 3/3 600 м
[Sc Ci fib]
-11.8 -19.4 53 -19 -19 1004.5 1002.7
15 18.02 З 1
{10}
20 км ясно -12.9 -19.6 57 -15 -15 1005.8 1004.0
18 18.02 З 1 20 км ясно -11.8 -20.8 47 -14 -14 1007.1 1005.3
21 18.02 З 2 20 км 3/3 600 м
[Sc Ci fib]
-12.0 -19.9 52 -17 -16 1007.5 1005.7 -13.8 26
00 19.02 З 2 20 км 3/1 600 м
[Sc Ci fib]
-8.4 -17.9 46 -12 -10 1008.6 1006.8
03 19.02 СЗ 1 20 км 2 балла -6.6 -17.6 41 -8 -6 1009.8 1008.0
06 19.02 СЗ 3 20 км 2 балла -11.3 -18.1 57 -17 -17 1009.8 1008.0

 

Местоположение метеостанции Мыс Африка (Камчатский край, Россия): широта 56.18 долгота 163.30 высота над уровнем моря 14 м.

В архиве по умолчанию представлена погода на Мысе Африка за последнюю неделю. Архивные данные за месяц целиком и за предыдущие месяцы, начиная с января 2011 года, Вы можете получить, выбрав интересующий диапазон дат из раскрывающегося списка и нажав кнопку "Ввод!".


*Определитесь, кто Вы:
робот инопланетянин человек

Внимание! Время в таблицах - всемирное. Для получения местного времени необходимо прибавить поправку, которая равна 12 ч.

Смотрите также архив погоды в соседних городах и на ближайших метеорологических станциях:

Погода в Усть-Камчатске (Камчатский край, Россия) (37 км)
Погода в Ключах (Камчатский край, Россия) (155 км)
Погода на Мысе Озерном (Камчатский край, Россия) (164 км)
Погода на Острове Беринга (Камчатский край, Россия) (196 км)
Погода в Козыревске (Камчатский край, Россия) (217 км)
Погода в Эссо (Камчатский край, Россия) (287 км)
Погода в Долиновке (Камчатский край, Россия) (294 км)
Погода в Семячике (Камчатский край, Россия) (315 км)
Погода в Тигиле (Камчатский край, Россия) (334 км)
Погода в Оссоре (Камчатский край, Россия) (340 км)

Пояснения к столбцам:

Ветер - указаны скорость ветра в м/с - средняя за 10 мин, порывы в срок и между сроками (в фигурных скобках) и направление, откуда дует ветер: С - северный, СВ - северо-восточный, В - восточный, ЮВ - юго-восточный, Ю - южный, ЮЗ - юго-западный, З - западный, СЗ - северо-западный.
Видимость - горизонтальная дальность видимости в метрах или километрах. При видимости от 1 до 10 км при отсутствии осадков обычно наблюдается дымка, при ухудшении видимости до 1 км и менее - туман. В сухую погоду видимость может ухудшаться дымом, пылью или мглою.
Явления - указаны атмосферные явления, наблюдавшиеся в срок или в последний час перед сроком; фигурными скобками обозначены явления, наблюдавшиеся между сроками (за 1-3 часа до срока); квадратными скобками обозначены град или гололедные отложения с указанием их диаметра в мм.
Облачность - указаны через наклонную черту общая и нижняя облачность в баллах и высота нижней границы облаков в метрах; квадратными скобками обозначены формы облаков: Ci - перистые, Cs - перисто-слоистые, Cc - перисто-кучевые, Ac - высококучевые, As - высокослоистые, Sc - слоисто-кучевые, Ns - слоисто-дождевые, Cu - кучевые, Cb - кучево-дождевые. Подробнее классификацию облаков см. в Атласе облаков (PDF).
T - Температура воздуха - температура, измеренная на высоте 2 м над землей.
Td - Температура точки росы - температура, при понижении до которой содержащийся в воздухе водяной пар достигнет насыщения.
f - Относительная влажность воздуха - влажноcть воздуха, измеренная на высоте 2 м над землей.
Te - Эффективная температура - температура, которую ощущает одетый по сезону человек в тени. Характеристика душности погоды. При расчете учитывается влияние влажности воздуха и скорости ветра на теплоощущения человека.
Tes - Эффективная температура на солнце - температура, которую ощущает человек, с поправкой на солнечный нагрев. Характеристика знойности погоды. Зависит от высоты солнца над горизонтом, облачности и скорости ветра. Ночью, в пасмурную погоду, а также при ветре 12 м/с и более поправка равна нулю.
P - Атмосферное давление - приведенное к уровню моря атмосферное давление.
Po - Атмосферное давление - измеренное на уровне метеостанции атмосферное давление.
Tmin - Минимальная температура - минимум температуры воздуха на высоте 2 м над землей.
Tmax - Максимальная температура - максимум температуры воздуха на высоте 2 м над землей.
R - Количество осадков - Количество выпавших осадков за период времени, мм. При наведении курсора мыши на число - период времени, за который выпало указанное количество осадков.
R24 - Количество осадков - Количество выпавших осадков за 24 часа, мм.
S - Снежный покров - Высота снежного покрова, см. При наведении курсора мыши на число - состояние снежного покрова и степень покрытия местности в баллах.